When you browse on this site, cookies collect data to enhance your experience and personalize the content and advertising you see.
Visit our Privacy Policy to learn more. By continuing to use the site, you agree to this use of cookies and data.
  • En España
  • Lista de países
  • Para 7 días
  • Temperatura del agua
  • El tiempo en el mapa
  • Informadores
  • user-avatar
    Iniciar sesión

    Tiempo cada hora Shaki

    Hoy, 28 Marzo, Sábado

    Tiempo Temperatura Precipitaciones Viento Presión Humedad
    00:00 +9°C° 0 mm 2 mps 738 mmHg 56%
    01:00 +10°C° 0 mm 1 mps 737 mmHg 61%
    02:00 +9°C° 0 mm 1 mps 737 mmHg 66%
    03:00 +9°C° 0 mm 1 mps 736 mmHg 72%
    04:00 +8°C° 0 mm 0 mps 736 mmHg 73%
    05:00 +7°C° 0 mm 0 mps 736 mmHg 74%
    06:00 +7°C° 0 mm 0 mps 736 mmHg 75%
    07:00 +10°C° 0 mm 1 mps 736 mmHg 71%
    08:00 +12°C° 0 mm 1 mps 736 mmHg 67%
    09:00 +14°C° 0 mm 2 mps 736 mmHg 63%
    10:00 +15°C° 0 mm 2 mps 735 mmHg 59%
    11:00 +16°C° 0 mm 2 mps 735 mmHg 56%
    12:00 +17°C° 0 mm 3 mps 735 mmHg 53%
    13:00 +17°C° 0 mm 3 mps 734 mmHg 51%
    14:00 +18°C° 0 mm 3 mps 733 mmHg 50%
    15:00 +18°C° 0 mm 4 mps 733 mmHg 50%
    16:00 +17°C° 0 mm 3 mps 733 mmHg 55%
    17:00 +16°C° 0 mm 3 mps 733 mmHg 61%
    18:00 +13°C° 0 mm 3 mps 733 mmHg 66%
    19:00 +13°C° 0 mm 4 mps 733 mmHg 65%
    20:00 +12°C° 0 mm 4 mps 733 mmHg 65%
    21:00 +12°C° 0 mm 5 mps 733 mmHg 64%
    22:00 +11°C° 0 mm 4 mps 733 mmHg 66%
    23:00 +10°C° 0 mm 3 mps 732 mmHg 68%

    Mañana, 29 Marzo, Domingo

    Tiempo Temperatura Precipitaciones Viento Presión Humedad
    00:00 +9°C° 0 mm 2 mps 732 mmHg 71%
    01:00 +9°C° 0 mm 2 mps 732 mmHg 70%
    02:00 +10°C° 0 mm 1 mps 731 mmHg 69%
    03:00 +10°C° 0 mm 1 mps 731 mmHg 69%
    04:00 +9°C° 0 mm 1 mps 731 mmHg 69%
    05:00 +9°C° 0 mm 1 mps 730 mmHg 69%
    06:00 +9°C° 0 mm 1 mps 730 mmHg 69%
    07:00 +10°C° 0 mm 1 mps 730 mmHg 65%
    08:00 +12°C° 0 mm 1 mps 729 mmHg 60%
    09:00 +13°C° 0 mm 1 mps 729 mmHg 55%
    10:00 +14°C° 0 mm 1 mps 729 mmHg 54%
    11:00 +15°C° 0 mm 2 mps 728 mmHg 52%
    12:00 +16°C° 0 mm 2 mps 728 mmHg 50%
    13:00 +16°C° 0 mm 2 mps 727 mmHg 50%
    14:00 +17°C° 0 mm 3 mps 727 mmHg 50%
    15:00 +17°C° 0 mm 3 mps 726 mmHg 50%
    16:00 +16°C° 0 mm 2 mps 726 mmHg 53%
    17:00 +15°C° 0 mm 2 mps 726 mmHg 55%
    18:00 +14°C° 0 mm 2 mps 726 mmHg 58%
    19:00 +13°C° 0.3 mm 1 mps 726 mmHg 68%
    20:00 +12°C° 0.3 mm 1 mps 726 mmHg 77%
    21:00 +11°C° 0.3 mm 1 mps 727 mmHg 86%
    22:00 +11°C° 0.4 mm 1 mps 726 mmHg 86%
    23:00 +11°C° 0.4 mm 1 mps 726 mmHg 86%

    Pasado mañana, 30 Marzo, Lunes

    Tiempo Temperatura Precipitaciones Viento Presión Humedad
    00:00 +11°C° 0.4 mm 1 mps 725 mmHg 86%
    01:00 +11°C° 0.1 mm 1 mps 725 mmHg 87%
    02:00 +11°C° 0.1 mm 1 mps 725 mmHg 89%
    03:00 +11°C° 0.1 mm 1 mps 724 mmHg 90%
    04:00 +9°C° 0 mm 2 mps 724 mmHg 91%
    05:00 +9°C° 0 mm 2 mps 724 mmHg 92%
    06:00 +8°C° 0 mm 2 mps 724 mmHg 92%
    07:00 +10°C° 0 mm 2 mps 724 mmHg 86%
    08:00 +11°C° 0 mm 3 mps 724 mmHg 79%
    09:00 +13°C° 0 mm 3 mps 724 mmHg 73%
    10:00 +14°C° 0.1 mm 4 mps 724 mmHg 68%
    11:00 +15°C° 0.1 mm 4 mps 724 mmHg 62%
    12:00 +18°C° 0.1 mm 4 mps 724 mmHg 57%
    13:00 +17°C° 0 mm 5 mps 724 mmHg 55%
    14:00 +17°C° 0 mm 5 mps 724 mmHg 52%
    15:00 +19°C° 0 mm 5 mps 724 mmHg 50%
    16:00 +16°C° 0 mm 5 mps 724 mmHg 55%
    17:00 +15°C° 0 mm 4 mps 725 mmHg 61%
    18:00 +14°C° 0 mm 4 mps 725 mmHg 66%
    19:00 +13°C° 0 mm 4 mps 726 mmHg 68%
    20:00 +12°C° 0 mm 3 mps 726 mmHg 70%
    21:00 +12°C° 0 mm 3 mps 727 mmHg 72%
    22:00 +11°C° 0.5 mm 3 mps 727 mmHg 74%
    23:00 +12°C° 0.5 mm 2 mps 727 mmHg 77%

    31 Marzo, Martes

    Tiempo Temperatura Precipitaciones Viento Presión Humedad
    00:00 +12°C° 0.5 mm 2 mps 727 mmHg 79%
    01:00 +10°C° 0.6 mm 2 mps 728 mmHg 82%
    02:00 +11°C° 0.6 mm 1 mps 728 mmHg 85%
    03:00 +11°C° 0.6 mm 1 mps 728 mmHg 88%
    04:00 +11°C° 0.2 mm 1 mps 729 mmHg 89%
    05:00 +11°C° 0.2 mm 1 mps 729 mmHg 90%
    06:00 +10°C° 0.2 mm 1 mps 730 mmHg 91%
    07:00 +11°C° 0 mm 1 mps 730 mmHg 85%
    08:00 +12°C° 0 mm 1 mps 730 mmHg 79%
    09:00 +13°C° 0 mm 1 mps 730 mmHg 73%
    10:00 +14°C° 0 mm 2 mps 730 mmHg 68%
    11:00 +15°C° 0 mm 2 mps 730 mmHg 63%
    12:00 +17°C° 0 mm 3 mps 730 mmHg 58%
    13:00 +17°C° 0 mm 2 mps 730 mmHg 55%
    14:00 +18°C° 0 mm 2 mps 730 mmHg 53%
    15:00 +18°C° 0 mm 2 mps 730 mmHg 50%
    16:00 +17°C° 0 mm 2 mps 730 mmHg 53%
    17:00 +16°C° 0 mm 2 mps 731 mmHg 55%
    18:00 +16°C° 0 mm 1 mps 731 mmHg 58%
    19:00 +15°C° 0.1 mm 2 mps 731 mmHg 60%
    20:00 +14°C° 0.1 mm 3 mps 732 mmHg 63%
    21:00 +13°C° 0.1 mm 4 mps 732 mmHg 66%
    22:00 +12°C° 0.1 mm 4 mps 732 mmHg 70%
    23:00 +12°C° 0.1 mm 3 mps 732 mmHg 74%

    1 Abril, Miércoles

    Tiempo Temperatura Precipitaciones Viento Presión Humedad
    00:00 +11°C° 0.1 mm 3 mps 732 mmHg 78%
    01:00 +10°C° 0 mm 2 mps 732 mmHg 79%
    02:00 +10°C° 0 mm 2 mps 732 mmHg 81%
    03:00 +10°C° 0 mm 1 mps 732 mmHg 82%
    04:00 +10°C° 0 mm 1 mps 732 mmHg 83%
    05:00 +10°C° 0 mm 1 mps 733 mmHg 83%
    06:00 +9°C° 0 mm 1 mps 733 mmHg 84%
    07:00 +11°C° 0 mm 1 mps 733 mmHg 79%
    08:00 +12°C° 0 mm 1 mps 733 mmHg 74%
    09:00 +14°C° 0 mm 2 mps 732 mmHg 69%
    10:00 +15°C° 0 mm 2 mps 732 mmHg 66%
    11:00 +16°C° 0 mm 2 mps 732 mmHg 63%
    12:00 +17°C° 0 mm 2 mps 731 mmHg 59%
    13:00 +17°C° 0 mm 2 mps 731 mmHg 57%
    14:00 +18°C° 0 mm 2 mps 731 mmHg 54%
    15:00 +18°C° 0 mm 2 mps 730 mmHg 52%
    16:00 +18°C° 0 mm 2 mps 730 mmHg 56%
    17:00 +18°C° 0 mm 1 mps 730 mmHg 59%
    18:00 +16°C° 0 mm 1 mps 730 mmHg 63%
    19:00 +16°C° 0.1 mm 2 mps 730 mmHg 67%
    20:00 +14°C° 0.1 mm 3 mps 730 mmHg 71%
    21:00 +13°C° 0.1 mm 4 mps 731 mmHg 75%
    22:00 +13°C° 0.1 mm 3 mps 730 mmHg 76%
    23:00 +12°C° 0.1 mm 3 mps 730 mmHg 77%

    2 Abril, Jueves

    Tiempo Temperatura Precipitaciones Viento Presión Humedad
    00:00 +12°C° 0.1 mm 3 mps 730 mmHg 78%
    01:00 +12°C° 0 mm 2 mps 729 mmHg 79%
    02:00 +12°C° 0 mm 1 mps 729 mmHg 81%
    03:00 +12°C° 0 mm 1 mps 729 mmHg 83%
    04:00 +12°C° 0 mm 1 mps 729 mmHg 83%
    05:00 +12°C° 0 mm 1 mps 729 mmHg 83%
    06:00 +11°C° 0 mm 0 mps 729 mmHg 83%
    07:00 +12°C° 0 mm 1 mps 729 mmHg 82%
    08:00 +13°C° 0 mm 1 mps 729 mmHg 80%
    09:00 +13°C° 0 mm 2 mps 729 mmHg 79%
    10:00 +14°C° 0 mm 2 mps 729 mmHg 78%
    11:00 +13°C° 0 mm 3 mps 729 mmHg 77%
    12:00 +13°C° 0 mm 3 mps 729 mmHg 76%
    13:00 +14°C° 0 mm 3 mps 729 mmHg 72%
    14:00 +16°C° 0 mm 3 mps 729 mmHg 68%
    15:00 +17°C° 0 mm 4 mps 729 mmHg 64%
    16:00 +16°C° 0 mm 3 mps 729 mmHg 65%
    17:00 +16°C° 0 mm 2 mps 730 mmHg 67%
    18:00 +15°C° 0 mm 2 mps 730 mmHg 68%
    19:00 +14°C° 0 mm 1 mps 731 mmHg 70%
    20:00 +13°C° 0 mm 1 mps 731 mmHg 71%
    21:00 +12°C° 0 mm 1 mps 732 mmHg 73%
    22:00 +12°C° 0 mm 1 mps 732 mmHg 75%
    23:00 +10°C° 0 mm 2 mps 732 mmHg 77%
    Mostrar más